Regional Weather Roundup
Issued by NWS

Home | Current Version | Previous Version | Graphics & Text | Print | Product List | Glossary On
Versions: 1 2 3 4 5 6 7 8 9 10 11 12 13 14 15 16 17 18 19 20 21 22 23 24 25 26 27 28 29 30 31 32 33 34 35 36 37 38 39 40 41 42 43 44 45 46 47 48 49 50
000
ASUS44 KMEG 200510
RWRTN
TENNESSEE HOURLY STATE WEATHER ROUNDUP
NATIONAL WEATHER SERVICE MEMPHIS TN
1200 AM CDT SAT SEP 20 2014

TNZ002-004-019-021-049-052-054-088>092-200600-
WEST TENNESSEE

CITY           SKY/WX    TMP DP  RH WIND       PRES   REMARKS
MEMPHIS INTL     N/A     75  68  78 CALM      30.03S
NWS MEMPHIS      N/A     69 N/A N/A MISG        N/A
JACKSON        PTCLDY    64  63  94 CALM      30.04F FOG
DYERSBURG      CLEAR     66  57  72 CALM      30.05S
UNION CITY       N/A     63  61  94 CALM      30.04S VSB 1
PARIS          CLEAR     61  61 100 CALM      30.06R
HUNTINGDON     CLEAR     64  63  97 CALM      30.05S
LEXINGTON      CLEAR     64  64 100 CALM      30.05S
SAVANNAH       MOCLDY    64  64 100 CALM      30.06R
$$

TNZ008-025-027-028-033-062-065-066-200600-
NORTH MIDDLE TENNESSEE

CITY           SKY/WX    TMP DP  RH WIND       PRES   REMARKS
NASHVILLE      PTCLDY    69  65  86 CALM      30.07S
DICKSON        CLEAR     66  64  94 CALM      30.06S
PORTLAND       PTCLDY    64  63  94 CALM      30.06F
CLARKSVILLE    CLEAR     67  63  87 CALM      30.05S
LEBANON        MOCLDY    68  64  86 CALM      30.06S
SMYRNA         PTCLDY    70  66  86 S5        30.08S
MURFREESBORO   PTCLDY    73  64  73 S6        30.08R
COOKEVILLE     PTCLDY    70  64  83 S6        30.11S
LIVINGSTON     PTCLDY    70  62  75 VRB6      30.12S
GALLATIN       PTCLDY    67  66  96 CALM      30.08S
CROSSVILLE     CLEAR     68  59  73 S3        30.17S
$$

TNZ061-075-076-078-094-096-097-200600-
SOUTH MIDDLE TENNESSEE

CITY           SKY/WX    TMP DP  RH WIND       PRES   REMARKS
LEWISBURG      PTCLDY    69  65  87 SE3       30.08R
FAYETTEVILLE   CLEAR     68  63  83 SE8       30.10S
TULLAHOMA      CLEAR     70  63  78 SE7       30.12S
WINCHESTER     CLEAR     72  63  73 SE14      30.11F
MCMINNVILLE    CLEAR     72  64  78 S6        30.12R
COLUMBIA       MOCLDY    70  70 100 CALM      30.06F
SHELBYVILLE    MOCLDY    72  66  83 SE5       30.10S
$$

TNZ017-018-042-046-047-200600-
NORTHEAST TENNESSEE

CITY           SKY/WX    TMP DP  RH WIND       PRES   REMARKS
TRI CITIES     CLEAR     61  54  77 CALM      30.20S
ELIZABETHTON   CLEAR     64  55  72 E6        30.22S
$$

TNZ012-013-036-069-073-074-200600-
CENTRAL EAST TENNESSEE

CITY           SKY/WX    TMP DP  RH WIND       PRES   REMARKS
KNOXVILLE      MOCLDY    71  60  68 SE6       30.13R
OAK RIDGE      MOCLDY    72  62  71 CALM      30.15S
GATLINBURG     PTCLDY    64  57  77 E3        30.14S
MORRISTOWN     CLEAR     66  55  68 VRB5      30.17S
$$

TNZ083-085-099-200600-
SOUTHEAST TENNESSEE

CITY           SKY/WX    TMP DP  RH WIND       PRES   REMARKS
CHATTANOOGA    CLOUDY    73  60  63 S7        30.14R
$$

SKY/WX REPORTED AS FAIR MEANS FEW OR NO CLOUDS BELOW
12 THOUSAND FEET.



USA.gov is the U.S. government's official web portal to all federal, state and local government web resources and services.